Погода в Глубинном

Россия / Приморский край     46°04′03″N   135°23′19″E
темп.,
°C
ветер,
м/с
пор.,
м/с
влажн.,
%
обл.,
%
осадки,
мм/ч
давл.,
гПа
погр.,
м
2 июля, сб
сб201:00+17вюв1192100 0.0 101211
04:00+17вюв1194100 0.0 101211
07:00+17в1197100 0.8 101218
10:00+18в1198100 1.4 101227
13:00+25ссв0168100 0.0 1009715
16:00+24зсз128038 1.0 1008732
19:00+22з119442 1.3 1008101
22:00+19ю1197100 1.4 100812
3 июля, вс
вс301:00+18ююв119799 0.0 100819
04:00+18ю1198100 0.9 100715
07:00+19юз0197100 0.4 100750
10:00+22з2291100 1.0 1006463
13:00+21зюз1295100 4.9 1006304
16:00+21зюз2395100 11.1 1005263
19:00+19юз1197100 2.2 100511
22:00+18юв1195100 2.9 100511
4 июля, пн
пн401:00+18ю1197100 0.1 100511
04:00+18юв119775 0.2 100511
07:00+19зюз119796 0.0 100572
10:00+21ю118776 0.0 1005433
13:00+23зсз228445 1.7 1005708
16:00+25з227182 3.1 10041020
19:00+23зсз1191100 2.1 100524
22:00+19ююв119685 6.8 100624
5 июля, вт
вт501:00+18юв229897 0.2 100740
04:00+16юв2299100 0.7 100856
07:00+17юв2298100 0.3 1009109
10:00+22ююв2281100 0.4 1008412
13:00+24зюз1286100 2.9 1008486
16:00+24зюз1183100 6.8 1007487
19:00+23ююв0193100 3.2 100835
22:00+20вюв2296100 3.4 100925
6 июля, ср
ср601:00+18юв2298100 0.2 101041
04:00+17юв2298100 1.1 101144
07:00+18юв2397100 0.0 1011101
10:00+24юв2270100 0.0 1011504
13:00+29ююз225247 0.0 10091424
16:00+29юз1252100 0.0 10081629
19:00+24в228597 0.4 100937
22:00+20юв229398 0.4 101033